Flag for U.S.A. Weather past 2 weeks in Fort Collins, Colorado, U.S.A.

57 °F


Feels Like: 57 °F
Forecast: 46 / 70 °F
Wind: No wind

Location: Fort Collins-Loveland Municipal Airport

Current Time: Oct 9, 2015 at 10:59:22 AM

Latest Report: Oct 9, 2015 at 10:35 AM

Visibility: 10 mi

Pressure: 30.40 "Hg (25.36 "Hg at 1522m altitude)

Humidity: 72%

Dew point: 48 °F

Location of Fort CollinsLocation

Historic Weather in Fort Collins — Graph


Fort Collins temperature yesterday

Maximum temperature yesterday: 77 °F (at 2:55 PM)
Minimum temperature yesterday: 50 °F (at 12:55 AM)
Average temperature yesterday: 60 °F

Past Weeks' High & Low Weather Summary

High91 °F (Sep 27, 2:55 PM)100% (Oct 7, 3:15 AM)30.44 "Hg (Oct 7, 3:15 AM)
Low43 °F (Oct 9, 7:15 AM)16% (Sep 27, 12:55 PM)29.86 "Hg (Oct 3, 2:15 PM)
Average60 °F67%30.15 "Hg
* Reported Sep 24 9:15 AM — Oct 9 9:55 AM, Fort Collins, Weather by CustomWeather, © 2015

Note: Actual official high and low records may vary slightly from our data, if they occured in-between our weather recording intervals... More about our weather records


Fort Collins weather history for previous 24 hours

Time TempWeatherWind HumidityBarometerVisibility
9:55 AM
Fri, Oct 9
55 °FSunny.No wind77%30.41 "Hg10 mi
9:35 AM52 °FSunny.No wind88%30.42 "Hg10 mi
9:15 AM50 °FSunny.3 mph88%30.42 "Hg10 mi
8:35 AM48 °FSunny.No wind87%30.42 "Hg5 mi
8:15 AM46 °FPassing clouds.5 mph93%30.42 "Hg4 mi
7:55 AM46 °FLow clouds.5 mph93%30.42 "Hg2 mi
7:35 AM45 °FLow clouds.5 mph93%30.42 "Hg1 mi
7:15 AM43 °FClear.3 mph87%30.42 "Hg2 mi
6:55 AM45 °FClear.No wind93%30.42 "Hg10 mi
6:35 AM46 °FClear.No wind87%30.42 "Hg10 mi
6:15 AM46 °FClear.No wind93%30.42 "Hg10 mi
5:55 AM46 °FClear.No wind87%30.41 "Hg10 mi
5:35 AM46 °FClear.No wind93%30.41 "Hg10 mi
5:15 AM46 °FClear.No wind93%30.41 "Hg10 mi
4:55 AM46 °FClear.No wind93%30.41 "Hg10 mi
4:35 AM46 °FClear.No wind87%30.41 "Hg10 mi
4:15 AM46 °FClear.3 mph87%30.41 "Hg10 mi
3:55 AM48 °FClear.6 mph82%30.41 "Hg10 mi
3:35 AM48 °FClear.5 mph87%30.41 "Hg10 mi
3:15 AM48 °FClear.6 mph87%30.41 "Hg10 mi
2:55 AM48 °FClear.6 mph87%30.41 "Hg10 mi
2:35 AM48 °FClear.5 mph87%30.41 "Hg10 mi
2:15 AM48 °FClear.6 mph82%30.41 "Hg10 mi
1:55 AM50 °FClear.6 mph82%30.41 "Hg10 mi
1:35 AM52 °FClear.7 mph77%30.42 "Hg10 mi
1:15 AM52 °FClear.7 mph77%30.42 "Hg10 mi
12:55 AM52 °FClear.6 mph77%30.42 "Hg10 mi
12:35 AM52 °FClear.6 mph77%30.42 "Hg10 mi
12:15 AM54 °FPassing clouds.5 mph77%30.43 "Hg10 mi
11:55 PM
Thu, Oct 8
55 °FOvercast.6 mph72%30.43 "Hg10 mi
11:35 PM55 °FPassing clouds.6 mph72%30.44 "Hg10 mi
11:15 PM55 °FPassing clouds.6 mph72%30.44 "Hg10 mi
10:55 PM55 °FPassing clouds.5 mph72%30.44 "Hg10 mi
10:35 PM55 °FPassing clouds.6 mph72%30.44 "Hg10 mi
9:35 PM55 °FPassing clouds.3 mph72%30.43 "Hg10 mi
8:55 PM57 °FOvercast.8 mph63%30.40 "Hg10 mi
8:35 PM57 °FOvercast.8 mph63%30.40 "Hg10 mi
8:15 PM59 °FPassing clouds.9 mph59%30.39 "Hg10 mi
7:55 PM59 °FPassing clouds.7 mph59%30.37 "Hg10 mi
7:35 PM59 °FPassing clouds.7 mph59%30.36 "Hg10 mi
7:15 PM61 °FPartly sunny.7 mph52%30.35 "Hg10 mi
6:55 PM61 °FScattered clouds.10 mph52%30.33 "Hg10 mi
6:35 PM61 °FScattered clouds.10 mph52%30.31 "Hg10 mi
6:15 PM63 °FPartly sunny.14 mph49%30.32 "Hg10 mi
5:55 PM63 °FPassing clouds.17 mph49%30.30 "Hg10 mi
5:35 PM64 °FSunny.15 mph46%30.29 "Hg10 mi
5:15 PM66 °FSunny.15 mph43%30.27 "Hg10 mi
4:55 PM66 °FSunny.15 mph43%30.27 "Hg10 mi
4:35 PM68 °FSunny.15 mph40%30.26 "Hg10 mi
3:15 PM77 °FSunny.18 mph28%30.20 "Hg10 mi
2:55 PM77 °FSunny.12 mph30%30.20 "Hg10 mi
2:35 PM75 °FSunny.9 mph31%30.20 "Hg10 mi
2:15 PM75 °FSunny.7 mph31%30.21 "Hg10 mi
1:55 PM75 °FSunny.7 mph31%30.21 "Hg10 mi
1:35 PM75 °FSunny.10 mph29%30.22 "Hg10 mi
1:15 PM75 °FSunny.10 mph31%30.22 "Hg10 mi
12:55 PM75 °FSunny.7 mph34%30.23 "Hg9 mi
12:35 PM73 °FSunny.6 mph36%30.24 "Hg10 mi
12:15 PM73 °FSunny.8 mph36%30.24 "Hg10 mi
11:55 AM72 °FSunny.5 mph38%30.23 "Hg10 mi
11:35 AM70 °FSunny.7 mph38%30.24 "Hg10 mi
11:15 AM70 °FSunny.3 mph38%30.24 "Hg10 mi
10:55 AM66 °FSunny.No wind43%30.24 "Hg10 mi
10:35 AM66 °FSunny.No wind43%30.24 "Hg10 mi
10:15 AM64 °FSunny.5 mph46%30.24 "Hg10 mi
Weather by CustomWeather, © 2015

See weather overviewHow to use our weather pages